Simultaneous Nadir Overpasses (SNOs) Predictions

Prediction of SNOs between AQUA and NPP Satellite Orbit:

Table of predicted SNOs for the next 14.0 days since TLE Epoch: 9/14/2018
Index Date (AQUA) Time (AQUA) Lat,Lon (AQUA) SZA (AQUA ) Date (NPP) Time (NPP) Lat,Lon (NPP) SZA (NPP ) Distance(km) Time Diff (sec)
1 09/16/2018 14:05:52 -74.82, 24.33 84.23 09/16/2018 14:05:30 -74.82, 24.34 84.21 0.34 22
2 09/16/2018 14:54:58 75.82,-165.27 94.69 09/16/2018 14:55:53 75.81,-165.35 94.66 2.44 55
3 09/19/2018 05:33:11 73.78, -29.88 97.84 09/19/2018 05:32:02 73.77, -29.91 97.91 1.08 69
4 09/19/2018 06:22:07 -75.37, 141.67 83.87 09/19/2018 06:22:15 -75.37, 141.70 83.88 0.96 8
5 09/21/2018 21:49:23 74.48, 87.63 98.05 09/21/2018 21:48:44 74.48, 87.64 98.08 0.20 39
6 09/21/2018 22:38:23 -75.85,-101.05 83.44 09/21/2018 22:39:01 -75.86,-100.98 83.49 2.03 38
7 09/24/2018 14:05:36 75.12,-154.85 98.32 09/24/2018 14:05:27 75.13,-154.79 98.31 1.83 9
8 09/24/2018 14:54:47 -75.93, 15.10 82.56 09/24/2018 14:55:56 -75.93, 15.01 82.60 2.44 69
9 09/27/2018 05:32:58 -73.95, 150.53 79.48 09/27/2018 05:32:03 -73.95, 150.50 79.42 1.12 55




NCC Satellite Simultaneous Nadir Overpasses (SNOs) Prediction Service
